Location: Kuffner-Sternwarte
(48.2130°N, 16.2960°E)
Time: 04:24:25
(UTC+02:00)

COROT - Pass Details

Date: 18 May 2018
Orbit: 602 x 886 km, 90.0° (Epoch: 17 October)

Event Time Altitude Azimuth Distance (km) Brightness Sun altitude
Rises 22:13:41 0° 0° (N) 2,980 9.9 -13.5°
Reaches altitude 10° 22:15:51 10° 360° (N) 2,099 9.1 -13.7°
Maximum altitude 22:20:29 81° 274° (W) 718 5.9 -14.2°
Enters shadow 22:24:59 13° 188° (S) 2,063 7.8 -14.6°
